User: anonymous   Login
Location: Proctor
(47.8934°N, 114.3048°W)
Time: 22:39:22
(UTC+00:00)
Language:

S-56A Canister/Altair - Orbit

View from above orbital plane
View from above orbital plane
View from above satellite
View from above satellite

Ground track
Ground track

The orbit data is extracted from the following two-line orbital elements,

1 00082U 61004B   24166.81818642  .00000437  00000-0  39004-3 0  9991
2 00082  38.8592 198.2456 1166093 282.8165  64.4950 12.26786116986821
Epoch (UTC): 14 June 2024 19:38:11
Eccentricity: 0.1166093
inclination: 38.8592°
perigee height: 637 km
apogee height: 2489 km
right ascension of ascending node: 198.2456°
argument of perigee: 282.8165°
revolutions per day: 12.26786116
mean anomaly at epoch: 64.4950°
orbit number at epoch: 98682

The dashed part of the orbit path shows where the satellite is in the earth's shadow,  

DLR